Dewpoint
70 69 68 69 70 69 68 66 59 58 58 52 52 54 54 61 60 59 59 60 58 61 61 59 56 58 58 55 58 57 57 57 59 50 52 64 69 68 68 68 69 71 73 73 74 74 74 76 76 75 75 75 75 75 74 75 75 75 76 76 75 75 76 75 75 75 76 76 76 76 76 76 75 75 75 75 75 75 75 75 75 75 75 76 76 76 76 75 76 75 75 75 76 76 75 76 76
66 68 68 69 68 68 65 63 58 54 55 50 53 54 58 60 60 57 56 59 58 61 58 57 57 59 59 59 56 54 58 60 59 60 63 66 66 67 68 67 68 70 71 73 72 72 74 76 76 75 75 75 75 75 75 75 75 75 76 76 76 76 76 76 75 75 75 76 76 75 76 76 75 75 74 74 74 74 74 75 75 75 75 75 75 75 75 75 75 75 75 75 75 76 76 75 76
65 66 67 68 68 70 63 63 57 53 51 52 51 56 60 58 57 57 59 60 61 61 57 58 60 61 58 57 54 52 55 60 59 61 64 67 65 68 68 67 69 71 71 71 71 72 74 76 76 75 75 75 75 75 76 76 76 76 75 75 75 76 75 75 75 75 75 74 75 75 75 76 75 75 75 75 74 74 75 75 75 75 75 75 75 76 75 75 75 75 75 76 76 75 75 75 75
64 66 65 67 64 67 62 60 56 51 50 55 52 58 58 58 57 60 62 62 60 57 59 58 61 62 57 58 56 56 58 59 59 61 64 63 64 67 68 68 71 69 69 69 71 72 74 75 76 76 75 75 75 76 76 76 76 76 76 75 75 75 75 75 75 75 75 74 74 75 75 75 75 75 74 75 75 75 74 75 75 74 75 75 75 75 75 75 75 75 76 76 75 75 75 75 76
64 67 70 67 67 62 61 58 54 54 48 50 52 58 58 58 59 61 62 61 59 58 58 60 58 65 64 61 60 57 61 60 61 61 61 64 65 67 69 70 69 68 68 69 70 71 74 76 76 75 75 75 76 76 76 76 76 76 75 75 75 75 75 75 75 75 75 75 74 73 73 73 73 74 74 74 75 75 75 75 75 75 75 75 75 75 75 75 75 75 76 75 76 76 75 75 75
65 66 70 69 67 67 63 56 54 54 58 56 55 57 59 60 61 60 59 61 61 59 61 60 57 58 58 60 60 59 59 57 60 61 63 65 66 67 69 69 67 67 69 70 72 73 75 76 75 75 75 75 76 76 76 76 75 75 75 74 75 75 75 75 75 76 75 75 74 74 74 73 72 74 74 75 75 75 75 75 75 75 75 75 75 75 75 74 75 75 75 74 75 75 75 75 74
66 67 68 70 67 67 59 53 52 53 58 61 56 59 60 61 61 60 59 61 62 62 63 59 57 57 58 60 60 63 64 60 60 60 64 65 66 68 69 67 67 68 69 71 74 73 75 76 75 75 75 75 76 76 76 75 75 75 75 75 75 75 76 76 75 75 75 74 74 74 73 73 72 73 74 74 75 75 75 75 75 75 75 74 75 75 75 75 75 75 75 75 74 75 75 75 75
70 69 68 63 62 64 58 55 55 54 59 60 60 60 62 62 62 62 59 59 58 60 61 57 57 59 60 61 62 66 62 61 61 63 65 65 67 68 68 67 67 68 68 71 73 74 77 75 75 75 75 75 76 75 75 75 75 75 75 75 75 75 76 75 75 75 74 74 74 73 74 73 74 74 74 74 74 74 74 75 75 75 75 75 75 75 75 75 75 75 75 75 75 75 76 76 75
69 66 70 64 61 61 58 56 55 60 60 61 61 64 64 63 63 62 61 61 58 62 61 58 57 58 60 60 63 65 64 64 64 67 65 65 66 67 67 67 67 67 68 71 71 73 75 75 75 75 75 75 75 75 75 75 75 75 75 75 75 75 75 75 75 74 74 74 74 73 73 73 74 74 74 74 74 75 74 74 74 75 75 75 75 75 75 75 75 74 74 75 75 74 75 76 75
68 68 63 63 63 56 58 56 54 56 59 61 62 64 64 63 63 63 61 60 61 60 61 59 58 60 60 60 62 63 64 65 65 65 65 65 65 67 68 67 67 68 68 69 71 72 73 76 75 75 75 75 75 76 76 75 75 75 75 75 75 75 75 75 75 74 74 73 74 73 73 72 73 74 74 74 74 74 74 74 74 75 75 75 74 74 74 74 74 74 74 74 74 74 75 75 75
64 68 66 62 58 56 54 55 57 58 60 62 62 65 65 64 64 63 62 62 61 61 59 59 58 58 59 62 64 65 65 65 64 64 64 65 66 67 67 69 68 68 67 68 70 73 74 75 76 75 75 75 75 76 75 75 75 75 75 75 75 75 75 75 74 74 74 74 73 73 73 73 74 74 74 74 74 74 74 74 74 75 75 73 73 74 74 74 73 74 74 74 74 74 75 75 75
63 65 64 57 58 55 58 57 58 57 60 62 61 65 65 65 64 62 62 62 61 59 58 58 58 58 57 58 62 66 65 64 64 64 64 65 65 66 68 68 69 69 68 68 71 74 75 76 75 75 75 75 75 75 75 75 75 75 75 75 75 75 75 74 74 74 75 74 74 74 74 73 73 74 74 74 74 74 73 74 74 75 74 74 74 74 74 74 74 74 74 74 74 74 75 75 75
62 65 60 61 56 55 55 55 56 58 58 59 60 64 65 64 63 63 62 63 61 60 59 62 58 57 54 59 63 64 63 64 65 64 64 63 65 66 68 68 69 69 68 69 70 72 73 74 76 75 74 74 74 75 75 75 75 75 75 75 75 75 75 74 74 74 74 74 74 74 73 73 74 74 73 73 73 73 73 74 74 74 74 74 74 73 73 74 74 74 74 74 74 74 74 74 75
64 65 62 56 58 55 54 55 58 56 56 59 63 66 64 62 62 64 62 62 61 61 60 60 58 58 59 59 61 62 64 65 64 64 63 65 66 66 67 68 68 68 69 70 71 71 72 71 72 73 75 75 76 75 75 75 75 75 75 75 75 74 74 74 75 74 74 74 74 74 74 74 74 73 73 73 73 73 73 74 74 74 74 74 73 73 73 73 73 73 74 74 74 74 74 74 74
63 70 62 59 55 54 56 54 55 55 57 61 64 64 64 65 64 64 63 62 63 63 60 60 59 55 55 55 57 59 63 65 64 64 64 66 66 67 67 68 68 68 67 69 70 69 69 71 72 74 75 74 75 77 77 75 75 75 75 75 75 74 74 74 74 74 74 74 74 75 74 73 74 74 73 73 73 73 73 73 74 74 74 75 74 73 73 73 73 74 74 74 74 74 74 74 74
67 66 63 57 53 55 55 54 56 55 57 61 64 65 65 65 65 63 66 65 62 63 60 59 59 61 56 55 56 59 63 65 64 63 65 67 67 67 67 67 67 66 68 69 68 68 69 71 73 73 74 74 74 75 75 76 75 74 75 75 75 74 74 74 74 74 74 74 74 74 75 74 75 74 74 72 73 73 73 73 74 75 74 73 73 73 73 73 72 73 74 75 75 74 74 74 74
67 66 60 56 56 55 56 54 55 52 60 62 65 65 62 63 65 67 67 65 60 60 61 57 56 58 56 56 59 61 63 65 65 64 66 67 67 66 67 68 67 67 69 68 69 69 70 72 73 73 74 74 74 74 73 74 75 74 74 74 75 75 75 75 74 74 74 74 74 75 74 74 75 73 73 72 73 73 73 73 74 74 74 73 73 73 73 74 74 74 75 75 75 74 74 74 74
65 62 58 59 55 54 58 56 58 59 61 61 64 63 62 61 63 64 64 63 63 62 61 59 59 59 59 61 62 62 63 63 62 64 65 65 65 64 64 66 66 66 67 68 69 71 72 73 74 73 74 74 74 73 74 73 74 75 76 76 75 75 74 74 74 74 74 75 74 76 76 75 73 75 74 72 73 74 73 74 74 74 74 74 74 74 74 75 75 75 75 75 75 75 75 75 75
62 62 61 55 61 61 60 59 60 59 60 62 63 64 63 61 63 63 61 62 62 61 59 58 60 61 61 62 62 62 63 62 62 62 63 63 64 63 64 66 66 65 67 66 69 71 72 73 73 72 73 73 73 74 74 75 76 76 75 75 75 73 74 74 74 74 75 76 77 76 76 75 74 74 74 74 74 73 73 74 74 75 74 74 74 74 74 74 74 75 75 75 75 75 75 75 74
62 63 61 57 61 60 59 61 62 63 61 62 63 63 64 62 63 61 61 58 60 59 57 57 57 58 60 61 61 62 62 62 62 62 61 62 62 62 63 63 64 67 66 65 69 71 72 72 73 73 73 73 73 74 74 74 74 75 74 75 75 75 74 74 75 75 76 76 76 75 74 76 75 75 73 74 74 73 73 73 74 74 75 75 75 74 74 75 75 75 75 75 74 75 73 71 71
62 62 61 60 61 58 61 64 64 61 63 62 64 62 62 62 63 62 59 56 59 59 56 56 57 57 60 60 60 61 61 61 61 60 60 61 60 60 61 61 63 66 66 67 69 71 72 72 72 73 74 73 73 73 73 73 74 73 73 74 75 74 74 74 75 75 75 75 75 75 75 74 73 73 74 74 73 73 74 74 74 74 74 75 74 75 75 74 76 75 75 74 73 72 72 72 71
61 60 62 60 62 62 64 64 65 61 64 65 64 60 63 64 64 62 58 55 56 57 56 57 58 59 60 60 60 60 60 60 59 60 60 60 61 61 61 62 63 65 67 67 68 70 70 71 72 72 71 73 74 73 74 74 74 73 74 74 74 74 74 74 74 74 73 75 75 74 74 75 75 74 74 74 74 74 74 73 73 74 75 75 75 74 75 75 73 73 73 72 71 71 72 72 70
58 59 61 61 61 63 63 62 64 65 65 64 61 61 64 64 63 61 62 62 58 58 58 58 59 60 60 59 59 60 59 59 59 60 60 60 61 61 61 62 63 65 66 67 68 69 70 70 72 71 71 74 75 74 73 73 74 74 74 74 74 74 74 74 72 73 74 75 74 73 72 73 73 73 74 75 74 74 74 73 72 73 74 74 73 72 73 73 72 72 72 73 71 69 70 71 71
58 57 61 62 64 65 64 63 65 64 65 63 64 63 64 63 60 63 64 64 61 60 58 59 59 59 59 59 60 59 59 59 59 60 60 61 61 61 61 61 62 65 66 67 67 68 69 69 71 71 72 73 74 74 74 73 74 74 73 74 73 73 73 72 71 72 74 74 75 73 71 71 70 71 73 73 73 74 74 74 74 72 71 72 73 72 72 71 71 73 73 73 72 71 67 68 66
55 56 61 62 64 66 64 64 64 64 65 66 66 64 64 63 63 64 64 63 59 58 60 60 59 59 59 60 60 60 60 59 59 60 60 61 61 62 62 63 63 64 65 65 67 67 68 69 70 70 71 73 73 72 73 73 73 73 74 72 73 74 73 71 72 74 73 72 74 75 73 69 70 71 72 73 73 74 74 74 71 71 72 71 73 71 72 72 71 71 72 71 72 72 68 67 65
54 58 60 62 62 64 64 65 65 64 66 67 65 63 63 64 65 64 64 63 59 60 60 60 60 59 59 59 60 60 60 60 60 60 60 61 61 62 62 62 62 61 63 64 66 67 68 68 68 68 70 72 73 72 74 73 74 74 74 74 73 75 73 72 73 70 72 71 72 74 74 71 71 71 72 73 73 74 73 72 72 71 71 71 70 72 71 71 70 70 71 71 71 71 68 67 66
55 60 61 61 62 64 65 64 63 66 66 65 64 64 64 65 64 60 64 62 60 59 60 60 60 59 58 59 60 60 59 59 59 59 60 60 62 61 61 61 60 62 64 64 65 68 69 67 67 69 71 75 74 72 73 74 74 74 74 73 74 74 72 73 72 71 72 71 73 75 75 75 71 72 72 73 72 72 72 73 71 71 70 70 72 72 72 72 72 70 71 71 71 71 67 66 66
59 60 61 61 62 63 65 65 64 63 64 65 64 64 65 65 65 60 62 61 59 58 60 59 58 59 58 59 59 60 58 59 59 59 59 60 60 60 60 61 60 62 62 63 66 68 67 67 67 68 70 74 74 71 74 74 74 74 75 73 73 73 74 72 69 71 72 72 74 75 75 75 74 74 74 73 72 72 71 71 72 71 70 71 72 71 71 73 72 71 72 73 73 72 68 68 68
59 59 58 60 62 63 64 63 64 63 63 65 65 63 62 63 61 62 61 61 60 57 59 59 58 58 59 59 58 59 59 59 59 58 59 60 60 60 58 59 59 61 64 64 65 66 66 67 67 69 71 74 74 70 70 72 73 72 73 72 73 73 73 72 70 70 72 73 75 75 75 76 75 75 74 74 73 71 72 72 72 73 73 73 73 73 73 74 73 72 71 72 71 70 67 67 65
58 58 57 58 59 60 64 65 65 64 65 66 64 54 56 59 62 62 61 62 60 58 58 57 57 58 58 59 58 58 59 60 58 58 59 60 60 59 59 59 61 63 66 66 65 65 66 67 67 68 71 72 73 69 71 71 73 73 73 72 73 72 70 70 70 71 71 72 74 75 75 76 75 74 74 74 73 72 73 73 73 72 73 73 73 74 72 72 70 71 69 69 68 69 66 67 64
55 55 59 55 55 58 63 63 64 62 65 65 65 54 57 60 63 63 63 61 60 58 58 57 57 57 58 58 57 57 59 60 58 58 59 60 59 60 61 61 62 64 66 66 65 66 67 68 67 67 71 71 71 71 69 71 72 72 72 71 71 72 71 69 68 69 70 70 72 73 75 75 75 74 74 73 73 72 71 72 72 71 73 74 72 73 73 72 72 71 70 70 71 68 67 68 66
54 52 56 57 57 59 62 63 63 60 63 65 64 56 57 60 61 64 65 63 62 59 59 58 56 56 57 57 55 55 58 59 59 58 59 60 60 60 62 63 63 64 65 66 66 67 66 68 68 67 70 71 73 72 71 71 72 72 72 72 72 72 69 69 69 69 69 69 70 73 75 75 74 75 75 75 73 72 70 71 71 74 74 74 73 74 74 72 73 72 73 71 70 68 70 68 69
51 51 51 55 50 56 58 62 63 63 62 64 62 58 59 61 62 63 64 61 60 59 58 58 57 56 56 57 55 55 57 58 60 59 60 60 60 60 62 64 64 66 65 66 68 67 68 68 69 67 68 70 72 72 72 72 72 72 72 70 70 72 69 69 70 70 70 70 70 70 74 75 77 76 76 75 74 72 71 71 71 73 74 73 75 74 72 73 73 69 75 75 74 72 68 66 67
48 51 54 48 54 52 53 61 63 63 62 59 62 62 58 59 62 63 64 63 62 60 57 57 57 56 57 57 55 56 58 59 59 60 60 61 61 62 63 66 66 66 68 67 68 68 68 70 70 69 70 69 71 72 72 71 71 72 71 71 73 71 70 68 69 69 70 70 71 73 76 75 77 78 77 75 75 73 72 71 72 73 74 74 75 74 73 73 73 72 73 75 74 73 69 68 66
47 49 48 50 54 51 56 55 59 60 62 59 61 62 58 60 62 62 64 65 64 61 59 58 57 57 57 56 56 57 58 59 59 61 60 61 62 63 64 66 67 67 68 68 70 70 70 71 72 72 71 70 71 72 73 72 72 73 71 71 71 72 72 70 69 69 69 71 70 73 76 76 76 77 75 75 75 72 72 72 73 73 74 75 75 72 73 75 74 74 72 75 76 73 72 69 67
47 50 48 47 51 49 55 57 60 59 59 59 60 59 59 60 61 62 62 63 63 61 60 59 59 57 58 56 56 57 59 58 60 60 61 62 63 63 64 66 67 67 69 70 71 71 71 71 72 73 73 71 71 72 72 72 71 71 70 70 70 71 71 71 72 70 70 70 71 73 75 75 76 77 76 75 75 74 72 72 73 73 74 74 73 72 72 73 75 75 74 72 74 72 71 67 66
49 48 49 48 47 54 57 58 60 59 58 57 60 60 61 58 60 61 62 63 63 62 60 59 59 59 57 56 56 58 60 58 59 60 61 62 62 64 65 66 67 68 70 71 71 71 72 71 72 73 73 73 72 71 72 71 71 70 70 67 67 69 71 71 70 71 70 71 73 73 74 74 76 76 76 75 74 73 74 73 74 74 74 75 75 74 74 73 74 75 74 75 72 72 69 66 65
43 47 45 48 49 48 53 57 58 61 58 57 59 60 61 59 60 61 62 62 61 61 60 60 59 59 58 58 58 59 60 58 60 61 61 62 62 63 64 66 69 68 71 71 71 72 73 71 71 72 73 73 72 72 71 71 72 70 69 68 69 68 70 69 69 70 69 70 74 75 75 75 75 76 77 77 76 75 74 73 75 75 75 76 76 75 75 74 74 74 73 73 72 70 67 64 64
43 45 45 46 46 56 54 55 57 56 55 57 57 59 58 59 62 62 61 62 61 61 61 60 59 59 60 58 58 59 59 58 59 60 61 60 61 62 64 65 66 68 69 69 71 72 73 72 72 73 73 73 73 73 72 73 73 73 71 69 68 68 70 70 69 70 72 70 73 74 76 76 76 76 77 77 76 74 74 74 74 75 76 75 76 76 75 74 74 73 73 72 71 69 65 65 69
34 43 44 41 49 47 50 56 56 59 57 57 58 56 59 59 62 63 62 62 63 64 64 63 61 59 59 58 58 57 57 58 58 58 58 59 61 63 63 65 66 66 69 69 70 72 72 73 74 74 73 73 74 74 74 74 73 74 74 72 71 70 70 72 73 73 73 72 72 72 74 75 75 74 74 74 75 75 75 74 74 75 76 76 75 76 76 74 75 74 73 73 74 67 63 63 66
27 31 39 40 47 45 45 57 56 58 56 60 57 57 57 58 59 61 63 62 63 62 62 62 61 61 61 61 60 58 56 58 58 57 58 58 60 62 63 65 65 65 67 69 69 69 69 72 74 75 74 74 74 74 74 75 75 74 73 73 72 72 72 72 71 70 72 73 71 72 72 74 75 74 74 75 74 75 76 75 75 75 76 76 75 75 75 72 73 73 74 75 73 70 63 63 65
26 28 31 37 45 45 48 55 54 54 56 59 55 52 52 56 57 59 63 61 61 62 62 60 61 61 60 59 59 58 56 58 58 57 57 57 59 61 64 66 65 65 66 67 66 68 69 72 74 75 75 74 74 75 75 75 74 73 72 71 71 70 70 70 70 69 69 69 67 68 72 72 73 75 75 75 74 74 75 75 75 74 75 74 74 74 74 74 74 72 74 73 72 72 73 65 63
26 27 26 32 43 47 50 53 54 53 50 54 57 49 48 55 55 58 60 61 60 61 61 60 60 61 59 59 60 56 56 56 57 57 57 57 59 60 63 65 64 64 65 66 66 68 70 72 75 75 76 75 75 75 76 75 75 74 73 70 70 69 69 69 70 69 67 67 70 70 72 73 74 73 73 74 74 75 76 75 75 74 73 74 74 75 74 72 71 73 74 75 74 74 73 68 63
25 24 26 28 40 46 48 51 53 51 52 57 54 54 51 51 53 58 59 60 61 60 60 60 59 60 58 59 58 57 55 55 56 57 58 58 60 60 62 63 63 62 64 65 66 67 71 73 74 75 76 75 75 76 75 75 76 75 74 73 72 70 67 69 71 72 71 72 71 70 71 71 73 73 73 74 75 75 76 75 75 75 74 73 73 73 73 73 75 75 76 75 76 75 73 71 68
27 23 27 28 39 44 46 49 48 52 55 48 50 52 49 47 52 57 59 58 59 59 60 60 59 60 59 60 58 56 54 55 55 56 57 57 59 59 61 62 62 62 63 65 66 67 71 73 74 74 75 76 76 76 75 76 75 75 74 73 73 71 70 70 71 71 72 72 73 72 72 71 72 74 74 74 74 75 75 76 75 75 74 73 73 73 72 74 76 76 76 76 76 75 73 72 71
26 23 27 35 37 40 44 44 45 52 48 44 48 49 46 49 54 54 57 56 56 59 60 59 60 59 59 59 58 57 55 56 55 55 56 57 58 59 59 61 61 61 62 66 66 67 70 73 73 74 74 74 76 76 76 76 76 76 74 74 74 73 73 74 72 72 72 73 72 74 73 74 71 72 74 75 74 74 75 75 74 74 73 72 72 73 74 74 75 76 76 76 76 76 73 71 68
25 26 34 36 34 39 42 44 48 47 42 43 43 49 45 44 52 55 55 56 58 58 58 60 60 59 59 59 58 56 55 55 55 56 56 57 58 58 58 59 61 62 63 66 66 66 68 71 73 73 74 74 75 76 75 76 75 75 75 74 74 74 74 74 74 75 74 74 73 73 73 73 72 72 71 73 74 73 74 75 72 72 73 74 73 73 74 72 71 72 75 76 77 76 74 73 70
25 29 32 34 41 42 40 41 45 41 39 40 44 47 45 41 51 52 53 55 55 57 57 58 58 59 59 59 58 56 58 56 55 57 56 56 58 58 59 60 62 64 64 67 65 66 67 70 72 73 73 74 75 75 75 74 74 74 75 75 73 74 74 73 74 74 74 74 73 73 73 74 73 72 73 71 71 71 74 74 74 74 74 74 73 74 74 72 71 73 74 76 76 76 75 74 74
24 28 33 36 37 35 37 38 36 35 39 43 41 44 47 45 47 49 54 55 55 57 57 57 58 58 60 59 58 57 56 56 56 58 58 56 57 59 59 62 64 67 67 68 64 64 66 70 71 72 73 74 74 75 75 75 74 75 74 74 74 74 74 74 74 74 74 73 73 74 75 74 74 74 72 71 70 71 74 74 74 73 74 74 75 75 74 74 75 73 76 75 75 76 75 75 73
24 28 33 35 33 34 34 35 36 36 35 41 42 47 44 45 47 52 53 55 55 56 57 58 59 59 60 60 59 57 57 58 59 57 58 59 59 60 62 64 66 67 67 67 65 66 67 68 71 71 73 73 74 74 75 74 75 75 75 75 74 74 74 74 73 72 72 73 74 74 72 71 73 73 72 72 71 70 71 73 74 74 75 75 76 76 75 75 75 74 75 75 74 75 76 74 74
21 25 31 33 34 31 32 33 33 33 38 38 47 43 44 41 49 52 53 55 57 57 57 59 59 59 60 61 60 58 57 58 59 59 57 59 61 64 64 65 66 67 66 65 65 67 69 69 72 72 72 73 74 74 74 74 74 75 75 75 75 75 74 73 73 72 73 72 72 72 74 71 70 72 72 74 74 74 73 74 73 73 74 75 75 75 74 75 76 75 76 76 75 75 75 74 74
19 23 28 30 30 36 37 34 36 38 36 42 48 41 46 49 57 56 56 55 57 57 58 59 60 60 60 61 60 57 58 58 58 60 58 59 64 65 63 64 66 67 68 65 65 69 69 70 72 72 72 72 73 74 73 73 74 74 75 75 75 75 75 74 75 75 75 73 73 73 74 74 74 73 74 75 74 74 73 73 74 73 75 74 75 75 75 74 75 75 75 75 74 71 75 75 74
14 20 26 29 31 34 37 37 38 42 41 42 47 42 42 50 52 54 57 57 58 57 58 59 60 61 62 65 63 61 62 61 59 59 58 59 61 65 63 64 64 64 65 65 68 70 71 71 71 72 72 72 72 74 73 73 73 73 74 74 75 75 74 73 72 73 71 73 74 73 71 72 73 74 73 74 75 75 74 73 73 71 74 75 75 76 74 75 76 75 74 75 74 73 75 75 74
11 11 16 29 35 36 38 33 37 35 34 34 38 41 44 41 48 54 55 56 57 58 58 59 62 62 62 62 62 63 62 62 61 61 62 62 63 64 62 62 64 63 64 66 69 70 71 71 70 71 71 72 71 71 71 71 72 73 74 74 74 75 73 72 72 72 72 73 74 73 72 72 72 71 72 71 75 75 75 74 75 75 75 74 74 74 74 74 75 74 75 76 74 75 75 75 75
15 13 13 23 31 32 37 35 33 33 31 33 38 38 35 39 46 50 53 53 55 56 57 58 59 61 61 61 61 62 62 63 63 62 62 62 63 64 64 62 62 63 67 66 68 68 69 69 68 66 69 69 69 68 69 71 71 69 70 72 72 73 73 73 73 74 74 73 72 71 72 72 71 73 74 75 75 74 74 74 75 74 75 75 75 74 76 75 75 74 74 74 75 76 75 74 76
19 22 14 15 28 30 34 34 35 35 33 31 35 38 35 38 42 53 51 53 55 55 56 56 58 59 60 61 61 62 62 63 63 62 61 60 62 63 62 63 62 63 65 65 65 66 66 66 67 65 66 69 70 68 69 70 70 69 68 71 72 74 74 73 74 74 72 73 73 71 72 70 71 71 72 74 74 73 73 73 72 72 72 73 74 74 74 75 75 75 75 72 73 76 75 75 74
13 16 16 20 21 21 28 32 32 31 33 32 33 34 35 48 56 55 54 55 57 57 57 57 58 59 60 61 62 63 63 65 64 63 62 62 63 63 63 62 63 64 65 63 62 64 63 63 64 64 66 66 67 67 67 70 69 70 70 70 70 72 72 72 72 73 73 72 73 73 71 70 73 72 72 72 72 74 74 74 73 74 72 73 75 75 75 76 76 77 75 76 77 78 77 75 76
13 12 13 13 16 19 25 28 28 26 31 32 34 33 40 52 53 57 58 58 58 59 59 59 59 59 61 62 63 64 64 65 64 63 62 61 61 61 60 61 62 65 66 64 62 62 62 62 66 68 68 66 64 65 69 71 70 69 69 70 70 70 71 71 70 71 72 71 72 73 74 73 72 73 73 71 73 72 73 74 73 74 74 74 75 77 75 74 76 75 76 72 73 75 77 75 76